This is the latest recevied weather packets stored in our database for station/object DL3TR-13. If no packets are shown the sender has not sent any weather packets the latest 10 day(s).
| Time | Temp. | Humidity | Pressure | Rain* | Wind** | Luminosity | Snow |
|---|---|---|---|---|---|---|---|
| 1777563793 | 15.56° C | 26% | 1021.7 hPa | 0 mm | - | 432 W/m² | - |
| 1777563193 | 15.56° C | 25% | 1021.7 hPa | 0 mm | - | 461 W/m² | - |
| 1777562593 | 16.11° C | 27% | 1021.5 hPa | 0 mm | - | 483 W/m² | - |
| 1777561993 | 15.56° C | 27% | 1021.3 hPa | 0 mm | - | 508 W/m² | - |
| 1777561393 | 16.11° C | 28% | 1021.3 hPa | 0 mm | - | 533 W/m² | - |
| 1777560793 | 16.11° C | 28% | 1021.3 hPa | 0 mm | - | 557 W/m² | - |
| 1777560193 | 15.56° C | 29% | 1021.4 hPa | 0 mm | - | 580 W/m² | - |
| 1777559593 | 16.11° C | 29% | 1021.4 hPa | 0 mm | - | 605 W/m² | - |
| 1777558993 | 16.67° C | 30% | 1021.3 hPa | 0 mm | - | 621 W/m² | - |
| 1777558393 | 16.11° C | 30% | 1021.4 hPa | 0 mm | - | 645 W/m² | - |
| 1777557793 | 16.11° C | 29% | 1021.3 hPa | 0 mm | - | 666 W/m² | - |
| 1777557193 | 16.67° C | 29% | 1021.3 hPa | 0 mm | - | 682 W/m² | - |
| 1777556593 | 16.67° C | 32% | 1021.2 hPa | 0 mm | - | 698 W/m² | - |
| 1777555993 | 16.67° C | 32% | 1021.2 hPa | 0 mm | - | 717 W/m² | - |
| 1777555393 | 16.11° C | 32% | 1021.2 hPa | 0 mm | - | 733 W/m² | - |
| 1777554793 | 16.11° C | 34% | 1021.2 hPa | 0 mm | - | 745 W/m² | - |
| 1777554193 | 16.11° C | 33% | 1021.1 hPa | 0 mm | - | 763 W/m² | - |
| 1777553593 | 16.67° C | 35% | 1021.2 hPa | 0 mm | - | 777 W/m² | - |
| 1777552993 | 16.11° C | 34% | 1021.1 hPa | 0 mm | - | 784 W/m² | - |
| 1777552393 | 16.11° C | 35% | 1021.2 hPa | 0 mm | - | 795 W/m² | - |
| 1777551793 | 16.67° C | 35% | 1021.4 hPa | 0 mm | - | 802 W/m² | - |
| 1777551193 | 16.11° C | 36% | 1021.4 hPa | 0 mm | - | 812 W/m² | - |
| 1777550593 | 16.11° C | 37% | 1021.4 hPa | 0 mm | - | 812 W/m² | - |
| 1777549993 | 15.56° C | 38% | 1021.4 hPa | 0 mm | - | 816 W/m² | - |
| 1777549393 | 15.56° C | 36% | 1021.5 hPa | 0 mm | - | 821 W/m² | - |
* Rain latest hour (hover to see other rain measurements)
** Current wind speed in m/s (hover to see current wind gust speed)